[[{"header":{"parameterUnit":"m.s-1","parameterCategory":1,"la1":30.2991,"la2":30.254,"lo1":-89.0895,"lo2":-89.0444,"dy":0.0017,"dx":0.0017,"nx":28,"ny":28,"refTime":"2025-01-23T03:00:00:Z","depth":0,"parameterNumber":2,"parameterNumberName":"U-component_of_WINDS"},"data":[0,0,0,0,0,0,0,0,0,0,0,0,0,0,0,0,0,0,0,0,0,0,0,0,0,0,0,0,0,0,0,0,0,0,0,0,0,0,0,0,0,0,0,0,0,0,0,0,0,0,0,0,0,0,0,0,0,0,0.5968,0.5968,0,0.6014,0.6015,0.6015,0.6052,0.6053,0.6053,0.6053,0.6099,0.61,0.6101,0,0,0,0,0,0,0,0,0,0,0,0,0,0.5909,0.591,0.5968,0.5968,0.5969,0.6014,0.6015,0.6016,0.6052,0.6053,0.6053,0.6054,0.6099,0.61,0.6101,0,0,0,0,0,0,0,0,0,0,0,0,0,0.5943,0.591,0.5968,0.5993,0.5995,0.6014,0.6015,0.6016,0.6052,0.6053,0.6053,0.6054,0.6098,0.61,0.6101,0.6098,0,0,0.6105,0.6106,0,0,0,0,0,0,0,0,0.5941,0.5945,0.5988,0.5991,0.5994,0.6028,0.6011,0.6043,0.6052,0.6031,0.6053,0.6054,0.6075,0.6078,0.6086,0.61,0.6102,0.6105,0.6106,0.6106,0.6107,0,0,0,0,0,0,0,0.5939,0.5943,0.5986,0.5989,0.5993,0.6001,0.6007,0.6017,0.6049,0.6032,0.6035,0.604,0.6076,0.6084,0.6087,0.6103,0.6105,0.6106,0.6107,0.6108,0.6117,0.6117,0,0,0,0,0,0,0.5933,0.5941,0.5985,0.5988,0.5968,0.6002,0.6008,0.6017,0.6049,0.6054,0.604,0.6042,0.6082,0.6085,0.6089,0.6087,0.6106,0.6108,0.6108,0.6118,0.6117,0.6116,0,0,0,0,0,0,0.5931,0.5936,0.5983,0.5965,0.5972,0.6002,0.6012,0.6017,0.6025,0.6055,0.606,0.6042,0.6082,0.6087,0.6096,0.6089,0.6108,0.6109,0.6118,0.6117,0.6117,0.6084,0,0,0,0,0,0,0.5929,0.5935,0.5935,0.5965,0.5973,0.5989,0.6011,0.6018,0.6027,0.6031,0.6058,0.6063,0.6083,0.6093,0.6097,0.6091,0.611,0.6119,0.6118,0.6117,0.6085,0.6082,0.6079,0,0,0,0,0,0.5927,0.5923,0.5935,0.594,0.5973,0.5989,0.5993,0.6017,0.6027,0.6026,0.6045,0.6062,0.609,0.6094,0.6098,0.6093,0.6119,0.6118,0.6117,0.6087,0.6083,0.6079,0,0,0,0,0,0,0.5891,0.5928,0.5941,0.5947,0.5964,0.5995,0.5995,0.6011,0.6026,0.6028,0.6056,0.6062,0.6068,0.6081,0.6086,0.6092,0.6107,0.6106,0.6082,0.6078,0.6075,0.6071,0.6112,0,0,0,0,0,0.5884,0.5894,0.5926,0.5928,0.5936,0.5964,0.5972,0.5989,0.6008,0.6015,0.6035,0.6053,0.6065,0.6073,0.6086,0.6088,0.6094,0.6087,0.6083,0.608,0.6079,0.6081,0.6078,0.6112,0.6112,0.6112,0,0,0.5869,0.589,0.5895,0.5921,0.5937,0.5947,0.597,0.5979,0.5987,0.6017,0.6026,0.6041,0.6063,0.6068,0.6071,0.6079,0.6071,0.6079,0.6076,0.6077,0.6079,0.6076,0.6073,0.6112,0.6112,0.6112,0,0,0.5846,0.5864,0.5867,0.5883,0.5907,0.5926,0.5926,0.5955,0.5966,0.5976,0.5999,0.6008,0.6029,0.6043,0.6053,0.6037,0.6053,0.6041,0.6023,0.6024,0.6021,0.6019,0.6012,0.601,0.604,0.604,0.604,0,0.5824,0.584,0.5867,0.5875,0.5886,0.5915,0.5918,0.5932,0.5958,0.5965,0.5974,0.6001,0.6018,0.6026,0.6023,0.603,0.6031,0.6037,0.602,0.6018,0.6016,0.601,0.6007,0.6038,0.6038,0.6038,0.6039,0,0.5812,0.5823,0.5823,0.5849,0.586,0.5865,0.5892,0.59,0.5916,0.5933,0.5943,0.5964,0.5982,0.5986,0.6001,0.5997,0.6001,0.6015,0.603,0.601,0.6005,0.6003,0.6036,0.6036,0.6037,0.6037,0,0,0.5767,0.5808,0.5807,0.5819,0.5848,0.5857,0.5864,0.5882,0.5888,0.5906,0.5912,0.5929,0.5942,0.5954,0.5971,0.5972,0.5957,0.5986,0.5987,0.5979,0.5953,0.5941,0.5938,0.5969,0.5968,0.5968,0.5951,0,0.5748,0.5763,0.5787,0.5794,0.5804,0.5832,0.5838,0.5856,0.5872,0.5883,0.5902,0.5913,0.593,0.5937,0.594,0.5958,0.5952,0.596,0.5973,0.5974,0.5966,0.5936,0.5924,0.5906,0.5949,0.5948,0.5948,0,0.5728,0.5745,0.5752,0.5781,0.5786,0.5791,0.581,0.582,0.5841,0.5853,0.5866,0.5885,0.5894,0.5908,0.592,0.5925,0.5932,0.5942,0.5942,0.5943,0.5959,0.5935,0.5901,0.5898,0.5945,0.5946,0.5946,0,0.5693,0.5718,0.5725,0.5735,0.5768,0.5771,0.5785,0.5807,0.5816,0.5833,0.5839,0.5856,0.5864,0.5877,0.59,0.5909,0.5909,0.5926,0.5918,0.5917,0.5915,0.5915,0.5881,0.5922,0.5922,0.5922,0.5922,0,0.5669,0.5672,0.571,0.5715,0.5719,0.5747,0.5751,0.5767,0.5787,0.5794,0.582,0.5826,0.5857,0.5867,0.5885,0.5892,0.5896,0.5905,0.591,0.5902,0.5901,0.5906,0.5907,0.5921,0.5921,0.5922,0.5922,0,0.563,0.5656,0.5666,0.5697,0.5705,0.5707,0.5733,0.5739,0.5757,0.5767,0.5771,0.58,0.5813,0.5838,0.5858,0.587,0.5872,0.5881,0.5865,0.5868,0.5858,0.5858,0.5826,0.5823,0.5866,0.5866,0.5865,0,0.5613,0.5616,0.5648,0.5655,0.5668,0.568,0.569,0.5718,0.5727,0.5752,0.5754,0.5769,0.5783,0.5803,0.5825,0.5841,0.5849,0.5837,0.5851,0.5844,0.5848,0.5847,0.5847,0.5833,0.5832,0.5832,0.5831,0,0.5578,0.5591,0.5605,0.5623,0.5634,0.565,0.5666,0.5671,0.5703,0.5712,0.5726,0.5737,0.5758,0.5772,0.5791,0.5805,0.5823,0.5827,0.5826,0.5817,0.5808,0.5812,0.5855,0.5827,0.5827,0.5828,0.5828,0.5828,0.5549,0.5553,0.5576,0.559,0.5606,0.5621,0.5628,0.5648,0.566,0.568,0.5696,0.5709,0.573,0.5757,0.577,0.578,0.5788,0.5787,0.5786,0.5785,0.5782,0.5807,0.5783,0.5784,0.5784,0.5784,0.5784,0,0.5515,0.5531,0.5545,0.5567,0.5579,0.5596,0.5616,0.5624,0.5635,0.5653,0.5667,0.5683,0.5697,0.5721,0.5738,0.5741,0.575,0.5744,0.5743,0.5746,0.5774,0.5772,0.5737,0.5737,0.5737,0.5737,0.5737,0.5737,0.5498,0.5506,0.5522,0.5537,0.5554,0.5567,0.5577,0.5591,0.5606,0.5623,0.5635,0.5651,0.5672,0.569,0.5704,0.571,0.5715,0.5706,0.5715,0.574,0.5744,0.5748,0.5747,0.5707,0.5707,0.5687,0.5687,0.5687]},{"header":{"parameterUnit":"m.s-1","parameterCategory":1,"la1":30.2991,"la2":30.254,"lo1":-89.0895,"lo2":-89.0444,"dy":0.0017,"dx":0.0017,"nx":28,"ny":28,"refTime":"2025-01-23T03:00:00:Z","depth":0,"parameterNumber":3,"parameterNumberName":"V-component_of_WINDS"},"data":[0,0,0,0,0,0,0,0,0,0,0,0,0,0,0,0,0,0,0,0,0,0,0,0,0,0,0,0,0,0,0,0,0,0,0,0,0,0,0,0,0,0,0,0,0,0,0,0,0,0,0,0,0,0,0,0,0,0,-1.3667,-1.3668,0,-1.3767,-1.3768,-1.3769,-1.3774,-1.3772,-1.3771,-1.377,-1.3873,-1.3877,-1.3881,0,0,0,0,0,0,0,0,0,0,0,0,0,-1.3482,-1.3485,-1.3667,-1.3668,-1.3669,-1.3766,-1.3768,-1.3769,-1.3774,-1.3772,-1.3771,-1.377,-1.3872,-1.3876,-1.3881,0,0,0,0,0,0,0,0,0,0,0,0,0,-1.357,-1.3486,-1.3666,-1.3683,-1.3686,-1.3766,-1.3768,-1.377,-1.3774,-1.3772,-1.3771,-1.3769,-1.387,-1.3876,-1.3882,-1.3952,0,0,-1.3899,-1.3902,0,0,0,0,0,0,0,0,-1.3565,-1.3576,-1.368,-1.3682,-1.3685,-1.3756,-1.374,-1.3831,-1.3775,-1.3741,-1.377,-1.3768,-1.3836,-1.3844,-1.3867,-1.3957,-1.3962,-1.39,-1.3903,-1.3906,-1.3907,0,0,0,0,0,0,0,-1.3559,-1.3572,-1.3706,-1.3681,-1.3684,-1.3686,-1.3697,-1.3757,-1.3797,-1.3743,-1.3744,-1.3756,-1.3837,-1.3861,-1.3869,-1.3963,-1.3899,-1.3905,-1.3908,-1.391,-1.4119,-1.4121,0,0,0,0,0,0,-1.3549,-1.3567,-1.3703,-1.3709,-1.3619,-1.3691,-1.3703,-1.3735,-1.3796,-1.3804,-1.3757,-1.3755,-1.3852,-1.3862,-1.3873,-1.3962,-1.3906,-1.3911,-1.3914,-1.4117,-1.4119,-1.4122,0,0,0,0,0,0,-1.3545,-1.3561,-1.3699,-1.3638,-1.3656,-1.3696,-1.3732,-1.3738,-1.3762,-1.3806,-1.3814,-1.3775,-1.3851,-1.3865,-1.3933,-1.3965,-1.3914,-1.3919,-1.4114,-1.4118,-1.4121,-1.4139,0,0,0,0,0,0,-1.354,-1.356,-1.3587,-1.3639,-1.3659,-1.3757,-1.3734,-1.3741,-1.3772,-1.3771,-1.3825,-1.3832,-1.3851,-1.3924,-1.3939,-1.3972,-1.3923,-1.4112,-1.4116,-1.412,-1.4136,-1.4142,-1.4148,0,0,0,0,0,-1.3533,-1.3587,-1.3588,-1.3604,-1.3694,-1.3759,-1.3771,-1.3791,-1.3774,-1.3803,-1.3831,-1.383,-1.3959,-1.3931,-1.3947,-1.3983,-1.411,-1.4115,-1.4119,-1.4133,-1.4141,-1.4148,0,0,0,0,0,0,-1.3537,-1.3594,-1.3596,-1.3668,-1.3709,-1.376,-1.3795,-1.3799,-1.3845,-1.3842,-1.3865,-1.3877,-1.3946,-1.3971,-1.3939,-1.4056,-1.4033,-1.4041,-1.4037,-1.4045,-1.4051,-1.4045,-1.3928,0,0,0,0,0,-1.3547,-1.3595,-1.3642,-1.3702,-1.3722,-1.3755,-1.3784,-1.3797,-1.3839,-1.3857,-1.389,-1.3932,-1.3982,-1.4015,-1.4063,-1.4138,-1.4152,-1.4171,-1.4177,-1.4182,-1.419,-1.4234,-1.4244,-1.4137,-1.4137,-1.4137,0,0,-1.3567,-1.3604,-1.3633,-1.3704,-1.3736,-1.3787,-1.377,-1.3823,-1.3861,-1.3865,-1.3932,-1.3958,-1.4007,-1.4079,-1.4113,-1.4103,-1.4222,-1.4188,-1.4192,-1.4197,-1.4239,-1.425,-1.4258,-1.414,-1.414,-1.4139,0,0,-1.363,-1.3661,-1.3716,-1.3749,-1.3799,-1.3821,-1.3834,-1.3885,-1.3903,-1.397,-1.3975,-1.402,-1.4105,-1.4141,-1.417,-1.4247,-1.4249,-1.4261,-1.4294,-1.4337,-1.4346,-1.4353,-1.4383,-1.4393,-1.4268,-1.4268,-1.4268,0,-1.3648,-1.3724,-1.3743,-1.3797,-1.3829,-1.3835,-1.3891,-1.3923,-1.3986,-1.4008,-1.3995,-1.4104,-1.4136,-1.4219,-1.4238,-1.426,-1.4277,-1.4256,-1.4343,-1.435,-1.4358,-1.4387,-1.4397,-1.427,-1.427,-1.4269,-1.4269,0,-1.3746,-1.3798,-1.3836,-1.3897,-1.3933,-1.3988,-1.4016,-1.405,-1.4059,-1.4083,-1.4153,-1.4192,-1.425,-1.427,-1.4279,-1.4354,-1.4346,-1.4338,-1.4315,-1.4369,-1.4397,-1.4408,-1.4272,-1.4271,-1.4271,-1.4271,0,0,-1.3814,-1.3887,-1.3901,-1.393,-1.3986,-1.4027,-1.4082,-1.4138,-1.4168,-1.4211,-1.426,-1.4332,-1.4325,-1.4358,-1.4371,-1.4408,-1.4469,-1.4395,-1.4397,-1.441,-1.4557,-1.4565,-1.4578,-1.447,-1.4472,-1.4474,-1.4554,0,-1.3885,-1.3984,-1.4004,-1.409,-1.4139,-1.4146,-1.4195,-1.4235,-1.4258,-1.4304,-1.433,-1.4382,-1.4367,-1.4388,-1.4424,-1.4454,-1.45,-1.4448,-1.4517,-1.4519,-1.4507,-1.4591,-1.46,-1.4674,-1.4565,-1.4566,-1.4568,0,-1.3981,-1.4028,-1.4119,-1.417,-1.4192,-1.4235,-1.4289,-1.4332,-1.4378,-1.4393,-1.443,-1.4439,-1.4498,-1.4471,-1.4554,-1.4518,-1.4547,-1.4566,-1.457,-1.4579,-1.4548,-1.4605,-1.4697,-1.4709,-1.4584,-1.4583,-1.4582,0,-1.4025,-1.411,-1.4177,-1.4201,-1.4261,-1.4292,-1.4319,-1.4363,-1.4396,-1.4443,-1.4466,-1.4519,-1.4549,-1.459,-1.4614,-1.4591,-1.4695,-1.467,-1.4711,-1.471,-1.4734,-1.4733,-1.4835,-1.4749,-1.4748,-1.4748,-1.4748,0,-1.4103,-1.4159,-1.4198,-1.4239,-1.4302,-1.4324,-1.4387,-1.4413,-1.4453,-1.45,-1.4508,-1.4552,-1.458,-1.4628,-1.4647,-1.4714,-1.4726,-1.4741,-1.4746,-1.4742,-1.474,-1.4763,-1.4759,-1.4751,-1.4751,-1.475,-1.4749,0,-1.4164,-1.4192,-1.4265,-1.4317,-1.4331,-1.4376,-1.442,-1.4461,-1.4484,-1.4544,-1.4559,-1.4596,-1.4654,-1.4681,-1.4752,-1.4764,-1.4841,-1.4841,-1.4826,-1.4828,-1.4869,-1.4865,-1.4991,-1.5009,-1.4908,-1.4909,-1.491,0,-1.4213,-1.4257,-1.4314,-1.4346,-1.4374,-1.4425,-1.4459,-1.4483,-1.4518,-1.4575,-1.4609,-1.4667,-1.4714,-1.4806,-1.4839,-1.4894,-1.4897,-1.4937,-1.4905,-1.4901,-1.4901,-1.4899,-1.4905,-1.4944,-1.4945,-1.4945,-1.4946,0,-1.4299,-1.4311,-1.436,-1.4414,-1.4455,-1.4499,-1.4542,-1.4568,-1.4598,-1.4638,-1.4697,-1.4734,-1.4807,-1.4865,-1.4922,-1.495,-1.4954,-1.4955,-1.4968,-1.4966,-1.4957,-1.4965,-1.4844,-1.4953,-1.4952,-1.4952,-1.4951,-1.4951,-1.4357,-1.4397,-1.4444,-1.4499,-1.4534,-1.4574,-1.4616,-1.4645,-1.4694,-1.4756,-1.4766,-1.483,-1.4876,-1.4953,-1.4983,-1.5034,-1.5025,-1.5043,-1.5048,-1.5052,-1.5056,-1.4946,-1.5044,-1.5044,-1.5043,-1.5043,-1.5043,0,-1.4445,-1.4476,-1.4526,-1.4587,-1.463,-1.4629,-1.4678,-1.4714,-1.477,-1.4813,-1.486,-1.4928,-1.4985,-1.5023,-1.5081,-1.5114,-1.5117,-1.5128,-1.5127,-1.5134,-1.5059,-1.5044,-1.5125,-1.5125,-1.5125,-1.5125,-1.5125,-1.5125,-1.4496,-1.4565,-1.4582,-1.4669,-1.4699,-1.4761,-1.4789,-1.4827,-1.4862,-1.4938,-1.4985,-1.501,-1.5051,-1.5112,-1.5164,-1.5174,-1.5196,-1.5208,-1.5218,-1.5148,-1.5139,-1.5131,-1.5117,-1.5212,-1.5212,-1.5289,-1.529,-1.529]}]]